CALSPHERE 1 1 00900U 64063C 26160.75667242 .00000532 00000+0 53227-3 0 9993 2 00900 90.2237 71.5959 0024874 321.0687 121.8153 13.76615305 70401 CALSPHERE 2 1 00902U 64063E 26160.78310096 .00000021 00000+0 18134-4 0 9992 2 00902 90.2378 75.6172 0016658 246.8944 174.0455 13.52899895855264 LCS 1 1 01361U 65034C 26160.39648746 .00000015 00000+0 86614-3 0 9994 2 01361 32.1358 195.5265 0012362 94.5132 265.6778 9.89310682209116 TEMPSAT 1 1 01512U 65065E 26160.39964076 .00000030 00000+0 44172-4 0 9994 2 01512 89.9992 212.5931 0067633 270.5245 105.2683 13.33593670959019 CALSPHERE 4A 1 01520U 65065H 26160.81647367 .00000119 00000+0 20868-3 0 9994 2 01520 89.8978 122.5604 0071544 123.1737 321.6117 13.36277002961721 OPS 5712 (P/L 160) 1 02826U 67053A 26160.80540138 .00006632 00000+0 93580-3 0 9997 2 02826 69.9173 56.3879 0000904 267.9628 92.1416 14.77622668 65144 OPS 5712 (P/L 153) 1 02874U 67053H 26160.81918812 .00000019 00000+0 51881-4 0 9991 2 02874 69.9723 131.0990 0008917 221.6264 138.4164 13.96827234 5760 RIGIDSPHERE 2 (LCS 4) 1 05398U 71067E 26160.81503452 .00000581 00000+0 18359-3 0 9991 2 05398 87.6212 340.8580 0057607 256.8650 102.6117 14.37858932872823 COSMOS 2493 (SKRL-756 1) 1 39490U 13078A 26160.82431539 .00002548 00000+0 19169-3 0 9991 2 39490 82.4122 268.3890 0011409 268.1707 91.8211 15.02120996676857 COSMOS 2494 (SKRL-756 2) 1 39491U 13078B 26160.70251372 .00002730 00000+0 19100-3 0 9992 2 39491 82.4125 257.9287 0015441 225.9089 134.0867 15.04825614677689